Peyton, CO

3:26 AM MST on February 10, 2016 (GMT -0700)
Meadow Lake

Weather History for KFLY - February, 2013

Change the Weather History Date:

Tuesday, February 12, 2013

  Actual Average (KCOS) Record (KCOS)
Temperature  
Mean Temperature 22 °F 31 °F  
Max Temperature 35 °F 44 °F 70 °F (1962)
Min Temperature 8 °F 19 °F -24 °F (1899)
Degree Days  
Heating Degree Days 44 34  
Month to date heating degree days 408  
Since 1 July heating degree days 4051  
Cooling Degree Days 0 0  
Month to date cooling degree days 0  
Year to date cooling degree days 0  
Moisture  
Dew Point 2 °F    
Average Humidity 47    
Maximum Humidity 89    
Minimum Humidity 14    
Precipitation  
Precipitation 0.00 in 0.01 in 0.49 in (1940)
Month to date precipitation 0.12  
Year to date precipitation 0.44  
Snow  
Snow 0.00 in 0.20 in 6.30 in (1940)
Month to date snowfall 2.1  
Since 1 July snowfall 21.2  
Snow Depth -    
Sea Level Pressure  
Sea Level Pressure 29.97 in    
Wind  
Wind Speed 6 mph (NNW)    
Max Wind Speed 10 mph    
Max Gust Speed 16 mph    
Visibility 10 miles    
Events      
T = Trace of Precipitation, MM = Missing Value Source: NWS Daily Summary

Daily Weather History Graph

Daily Weather History Graph

Search for Another Location

Airport or City:

Trip Planner

Search our weather history database for the weather conditions in past years. The results will help you decide how hot, cold, wet, or windy it might be!

Date:

Astronomy

Feb. 12, 2013 Rise Set
Actual Time 6:52 AM MST 5:32 PM MST
Civil Twilight 6:25 AM MST 6:00 PM MST
Nautical Twilight 5:54 AM MST 6:31 PM MST
Astronomical Twilight 5:23 AM MST 7:02 PM MST
Moon 7:53 AM MST (2/12) 8:33 PM MST (2/12)
Length of Visible Light 11h 34m
Length of Day
10h 39m
Waxing Crescent, 8% of the Moon is Illuminated
Feb 12
Waxing Crescent
Feb 17
First Quarter
Feb 25
Full
Mar 4
Last Quarter
Mar 11
New

Hourly Weather History & Observations

Time (MST) Temp. Windchill Dew Point Humidity Pressure Visibility Wind Dir Wind Speed Gust Speed Precip Events Conditions
12:13 AM 10.6 °F 2.5 °F 6.4 °F 83% 29.95 in 10.0 mi NW 4.6 mph - N/A   Clear
12:33 AM 8.6 °F -2.6 °F 5.4 °F 87% 29.96 in 10.0 mi NW 6.9 mph - N/A   Clear
12:53 AM 13.5 °F 3.3 °F 9.1 °F 83% 29.96 in 10.0 mi NNW 6.9 mph - N/A   Scattered Clouds
1:13 AM 15.8 °F 10.2 °F 9.9 °F 77% 29.96 in 10.0 mi NNW 3.5 mph - N/A   Mostly Cloudy
1:33 AM 12.0 °F 5.9 °F 8.2 °F 85% 29.96 in 10.0 mi NNW 3.5 mph - N/A   Scattered Clouds
1:53 AM 12.2 °F 2.9 °F 9.5 °F 89% 29.96 in 10.0 mi NW 5.8 mph - N/A   Clear
2:13 AM 11.1 °F 3.1 °F 7.7 °F 86% 29.95 in 10.0 mi WNW 4.6 mph - N/A   Clear
2:33 AM 13.1 °F 2.8 °F 9.5 °F 86% 29.95 in 10.0 mi NNW 6.9 mph - N/A   Clear
2:53 AM 17.1 °F 7.6 °F 10.8 °F 76% 29.94 in 10.0 mi NNW 6.9 mph - N/A   Clear
3:13 AM 13.1 °F 2.8 °F 7.9 °F 80% 29.94 in 10.0 mi NW 6.9 mph - N/A   Clear
3:33 AM 13.3 °F 2.0 °F 8.8 °F 82% 29.94 in 10.0 mi NNW 8.1 mph - N/A   Clear
3:53 AM 14.7 °F 3.8 °F 9.3 °F 79% 29.93 in 10.0 mi NNW 8.1 mph - N/A   Clear
4:13 AM 13.1 °F 1.8 °F 7.9 °F 80% 29.94 in 10.0 mi NNW 8.1 mph - N/A   Clear
4:33 AM 14.4 °F 4.3 °F 8.4 °F 77% 29.94 in 10.0 mi NNW 6.9 mph - N/A   Clear
4:53 AM 13.6 °F 3.5 °F 7.7 °F 77% 29.94 in 10.0 mi NNW 6.9 mph - N/A   Clear
5:13 AM 15.4 °F 5.6 °F 7.5 °F 71% 29.95 in 10.0 mi NNW 6.9 mph - N/A   Clear
5:33 AM 12.6 °F 2.2 °F 6.3 °F 76% 29.95 in 10.0 mi NNW 6.9 mph - N/A   Clear
5:53 AM 13.6 °F 2.5 °F 7.2 °F 75% 29.95 in 10.0 mi NNW 8.1 mph - N/A   Clear
6:13 AM 16.2 °F 4.7 °F 6.6 °F 66% 29.96 in 10.0 mi NNW 9.2 mph - N/A   Clear
6:33 AM 17.1 °F 5.8 °F 5.9 °F 62% 29.96 in 10.0 mi NNW 9.2 mph - N/A   Clear
6:53 AM 16.3 °F 6.7 °F 6.8 °F 66% 29.97 in 10.0 mi NNW 6.9 mph - N/A   Clear
7:13 AM 14.4 °F 4.3 °F 5.7 °F 69% 29.97 in 10.0 mi NNW 6.9 mph - N/A   Clear
7:33 AM 16.0 °F 5.3 °F 6.4 °F 66% 29.97 in 10.0 mi NNW 8.1 mph - N/A   Clear
7:53 AM 18.0 °F 9.8 °F 7.5 °F 64% 29.97 in 10.0 mi NW 5.8 mph - N/A   Clear
8:13 AM 20.3 °F 11.5 °F 8.2 °F 60% 29.97 in 10.0 mi NNW 6.9 mph - N/A   Clear
8:33 AM 23.0 °F 14.7 °F 9.1 °F 55% 29.97 in 10.0 mi NNW 6.9 mph - N/A   Clear
8:53 AM 24.8 °F 19.1 °F 8.6 °F 50% 29.97 in 10.0 mi NW 4.6 mph - N/A   Clear
9:13 AM 26.1 °F 18.4 °F 7.3 °F 45% 29.98 in 10.0 mi NW 6.9 mph - N/A   Clear
9:33 AM 27.9 °F 22.6 °F 4.3 °F 37% 29.99 in 10.0 mi NW 4.6 mph - N/A   Clear
9:53 AM 29.3 °F 21.5 °F 2.1 °F 31% 29.99 in 10.0 mi North 8.1 mph - N/A   Clear
10:13 AM 30.2 °F 21.9 °F 1.9 °F 30% 29.99 in 10.0 mi NNW 9.2 mph - N/A   Clear
10:33 AM 30.9 °F 22.8 °F 0.1 °F 27% 29.99 in 10.0 mi NNW 9.2 mph - N/A   Clear
10:53 AM 31.6 °F 25.1 °F 0.5 °F 27% 30.00 in 10.0 mi North 6.9 mph - N/A   Clear
11:13 AM 32.0 °F 25.6 °F -0.0 °F 26% 30.00 in 10.0 mi NNW 6.9 mph - N/A   Clear
11:33 AM 32.0 °F 24.8 °F 0.5 °F 26% 30.00 in 10.0 mi North 8.1 mph - N/A   Clear
11:53 AM 32.0 °F 24.2 °F -1.1 °F 24% 29.99 in 10.0 mi NNE 9.2 mph - N/A   Clear
12:13 PM 32.9 °F 28.5 °F -3.6 °F 21% 29.99 in 10.0 mi NNW 4.6 mph - N/A   Clear
12:33 PM 33.3 °F 28.9 °F -5.4 °F 19% 29.98 in 10.0 mi North 4.6 mph - N/A   Clear
12:53 PM 33.8 °F 28.6 °F -5.1 °F 19% 29.97 in 10.0 mi ENE 5.8 mph - N/A   Clear
1:13 PM 34.7 °F 26.9 °F -7.6 °F 16% 29.97 in 10.0 mi North 10.4 mph - N/A   Clear
1:33 PM 35.4 °F 28.4 °F -9.4 °F 14% 29.97 in 10.0 mi North 9.2 mph - N/A   Scattered Clouds
1:53 PM 34.0 °F 28.0 °F -9.4 °F 15% 29.96 in 10.0 mi North 6.9 mph - N/A   Mostly Cloudy
2:13 PM 33.8 °F 25.8 °F -9.9 °F 15% 29.96 in 10.0 mi North 10.4 mph - N/A   Overcast
2:33 PM 33.8 °F 30.8 °F -10.7 °F 14% 29.96 in 10.0 mi NE 3.5 mph - N/A   Overcast
2:53 PM 33.1 °F 28.7 °F -12.3 °F 14% 29.96 in 10.0 mi NW 4.6 mph - N/A   Overcast
3:13 PM 35.4 °F 31.5 °F -10.3 °F 14% 29.96 in 10.0 mi NW 4.6 mph - N/A   Scattered Clouds
3:33 PM 35.1 °F - -10.7 °F 14% 29.96 in 10.0 mi Calm Calm - N/A   Clear
3:53 PM 35.4 °F 28.4 °F -6.9 °F 16% 29.96 in 10.0 mi North 9.2 mph - N/A   Scattered Clouds
4:13 PM 34.5 °F 27.9 °F -6.5 °F 17% 29.96 in 10.0 mi North 8.1 mph - N/A   Clear
4:33 PM 33.8 °F 27.0 °F -8.0 °F 16% 29.96 in 10.0 mi North 8.1 mph 16.1 mph N/A   Scattered Clouds
4:53 PM 32.9 °F 27.5 °F -6.5 °F 18% 29.96 in 10.0 mi North 5.8 mph 16.1 mph N/A   Scattered Clouds
5:13 PM 30.9 °F 26.2 °F -3.5 °F 23% 29.97 in 10.0 mi North 4.6 mph - N/A   Clear
5:33 PM 28.4 °F 21.2 °F -2.6 °F 26% 29.98 in 10.0 mi North 6.9 mph - N/A   Clear
5:53 PM 27.3 °F 20.9 °F -2.0 °F 28% 29.98 in 10.0 mi North 5.8 mph - N/A   Clear
6:13 PM 25.0 °F 18.1 °F -0.9 °F 33% 29.99 in 10.0 mi North 5.8 mph - N/A   Clear
6:33 PM 25.7 °F 16.4 °F -2.9 °F 29% 29.99 in 10.0 mi North 9.2 mph - N/A   Clear
6:53 PM 25.3 °F 17.6 °F -2.9 °F 29% 29.99 in 10.0 mi North 6.9 mph - N/A   Clear
7:13 PM 25.0 °F 17.1 °F -3.6 °F 29% 29.99 in 10.0 mi North 6.9 mph - N/A   Clear
7:33 PM 24.6 °F 17.7 °F -3.6 °F 29% 29.99 in 10.0 mi North 5.8 mph - N/A   Clear
7:53 PM 23.5 °F 17.6 °F -3.3 °F 31% 29.99 in 10.0 mi North 4.6 mph - N/A   Clear
8:13 PM 21.2 °F 14.9 °F 0.9 °F 41% 29.99 in 10.0 mi NNW 4.6 mph - N/A   Clear
8:33 PM 18.5 °F 9.3 °F 1.8 °F 48% 30.00 in 10.0 mi West 6.9 mph - N/A   Clear
8:53 PM 17.6 °F 9.3 °F 2.5 °F 52% 30.00 in 10.0 mi WNW 5.8 mph - N/A   Clear
9:13 PM 16.0 °F 7.4 °F 3.0 °F 57% 29.99 in 10.0 mi West 5.8 mph - N/A   Clear
9:33 PM 16.7 °F 8.3 °F 2.7 °F 54% 29.99 in 10.0 mi WNW 5.8 mph - N/A   Clear
9:53 PM 16.3 °F 6.7 °F 3.0 °F 56% 29.99 in 10.0 mi WNW 6.9 mph - N/A   Clear
10:13 PM 17.2 °F 7.8 °F 2.1 °F 52% 29.99 in 10.0 mi WNW 6.9 mph - N/A   Clear
10:33 PM 18.5 °F 9.3 °F 2.3 °F 49% 29.99 in 10.0 mi West 6.9 mph - N/A   Clear
10:53 PM 18.9 °F 9.8 °F 2.5 °F 49% 29.98 in 10.0 mi West 6.9 mph - N/A   Clear
11:13 PM 18.3 °F 8.2 °F 2.8 °F 51% 29.98 in 10.0 mi West 8.1 mph - N/A   Clear
11:33 PM 16.9 °F 6.4 °F 2.8 °F 54% 29.99 in 10.0 mi West 8.1 mph - N/A   Clear
11:53 PM 17.8 °F 8.5 °F 2.3 °F 51% 29.98 in 10.0 mi West 6.9 mph - N/A   Clear